Date String (YYYY-MM-DD hh:mm:ss) UTC,Instrument flags,Ambient pressure (hPa),Sample flow (lpm),Bypass flow (lpm),Sample temperature (°C),Ambient temperature (°C),ASC tube jacket temperature (°C),LED temperature (°C),Box temperature (°C),Sample RH (%),Span deviation,Mass concentration (μg/m³),Mass concentration (μg/m³),Mass concentration (μg/m³)
DateTimeUTC,F1_M11,P_M11,Q1_M11,Q2_M11,T1_M11,T2_M11,T3_M11,T4_M11,T5_M11,U1_M11,ZSPAN_M11,X0_M11,X2_M11,X1_M11
2022-07-09 14:00:00,,0833.5,5.00,0.00,29.8,27.9,00.0,38.6,31.5,25.5,0000.0,0011.18,0004.48,0003.76
2022-07-09 14:01:00,,0833.5,4.99,0.00,29.8,28.0,00.0,38.6,31.6,25.0,0000.0,0011.12,0004.54,0003.78
2022-07-09 14:02:00,,0833.6,5.00,0.00,29.8,28.2,00.0,38.6,31.6,27.5,0000.0,0011.05,0004.55,0003.80
2022-07-09 14:03:00,,0833.6,5.00,0.00,29.8,28.3,00.0,38.6,31.6,27.8,0000.0,0011.34,0004.59,0003.82
2022-07-09 14:04:00,,0833.6,4.99,0.00,29.8,28.4,00.0,38.6,31.7,28.0,0000.0,0010.88,0004.59,0003.83
2022-07-09 14:05:00,,0833.6,5.00,0.00,29.8,28.5,00.0,38.6,31.7,27.9,0000.0,0010.12,0004.59,0003.83
2022-07-09 14:06:00,,0833.6,5.01,0.00,29.8,28.6,00.0,38.6,31.7,28.1,0000.0,0010.16,0004.61,0003.84
2022-07-09 14:07:00,,0833.6,4.99,0.00,29.9,28.7,00.0,38.6,31.8,28.3,0000.0,0010.90,0004.67,0003.85
2022-07-09 14:08:00,,0833.6,5.00,0.00,29.9,28.8,00.0,38.6,31.8,28.3,0000.0,0011.04,0004.70,0003.87
2022-07-09 14:09:00,,0833.6,5.01,0.00,29.9,28.8,00.0,38.7,31.8,27.9,0000.0,0010.97,0004.69,0003.89
2022-07-09 14:10:00,,0833.6,5.00,0.00,29.9,28.4,00.0,38.6,31.8,27.3,0000.0,0010.79,0004.69,0003.92
2022-07-09 14:11:00,,0833.6,4.99,0.00,29.9,27.7,00.0,38.6,31.7,28.2,0000.0,0010.57,0004.69,0003.92
2022-07-09 14:12:00,,0833.5,5.00,0.00,29.8,27.5,00.0,38.5,31.6,28.4,0000.0,0010.14,0004.66,0003.92
2022-07-09 14:13:00,,0833.5,5.00,0.00,29.8,27.5,00.0,38.5,31.5,28.5,0000.0,0011.16,0004.69,0003.93
2022-07-09 14:14:00,,0833.5,4.99,0.00,29.7,27.6,00.0,38.5,31.5,27.4,0000.0,0011.05,0004.67,0003.94
2022-07-09 14:15:00,,0833.5,5.00,0.00,29.7,27.8,00.0,38.5,31.5,27.7,0000.0,0011.24,0004.69,0003.94
2022-07-09 14:16:00,,0833.5,4.99,0.00,29.7,27.9,00.0,38.5,31.5,28.2,0000.0,0011.46,0004.72,0003.95
2022-07-09 14:17:00,,0833.6,5.00,0.00,29.7,28.1,00.0,38.5,31.5,28.3,0000.0,0011.45,0004.71,0003.94
2022-07-09 14:18:00,,0833.6,5.00,0.00,29.7,28.2,00.0,38.5,31.6,28.0,0000.0,0010.79,0004.67,0003.93
2022-07-09 14:19:00,,0833.5,5.00,0.00,29.7,28.3,00.0,38.5,31.6,26.9,0000.0,0010.99,0004.67,0003.92
2022-07-09 14:20:00,,0833.5,4.99,0.00,29.8,28.4,00.0,38.5,31.6,27.3,0000.0,0011.83,0004.67,0003.91
2022-07-09 14:21:00,,0833.5,5.00,0.00,29.8,28.5,00.0,38.6,31.7,28.2,0000.0,0011.37,0004.65,0003.90
2022-07-09 14:22:00,,0833.5,4.99,0.00,29.8,28.6,00.0,38.6,31.7,27.6,0000.0,0011.32,0004.65,0003.89
2022-07-09 14:23:00,,0833.5,4.99,0.00,29.8,28.7,00.0,38.6,31.8,27.6,0000.0,0011.15,0004.66,0003.90
2022-07-09 14:24:00,,0833.5,5.00,0.00,29.9,28.7,00.0,38.6,31.7,28.3,0000.0,0010.03,0004.62,0003.89
2022-07-09 14:25:00,,0833.5,5.00,0.00,29.9,28.6,00.0,38.6,31.8,28.4,0000.0,0009.80,0004.59,0003.87
2022-07-09 14:26:00,,0833.5,5.01,0.00,29.9,27.9,00.0,38.5,31.7,28.8,0000.0,0009.75,0004.60,0003.86
2022-07-09 14:27:00,,0833.6,5.00,0.00,29.8,27.5,00.0,38.5,31.6,27.5,0000.0,0010.94,0004.61,0003.86
2022-07-09 14:28:00,,0833.5,4.99,0.00,29.8,27.4,00.0,38.5,31.5,26.8,0000.0,0010.96,0004.61,0003.85
2022-07-09 14:29:00,,0833.6,5.01,0.00,29.7,27.5,00.0,38.5,31.5,27.6,0000.0,0011.18,0004.60,0003.86
2022-07-09 14:30:00,,0833.6,4.99,0.00,29.7,27.6,00.0,38.4,31.5,27.6,0000.0,0010.89,0004.55,0003.84
2022-07-09 14:31:00,,0833.5,4.99,0.00,29.7,27.8,00.0,38.5,31.4,27.4,0000.0,0010.32,0004.55,0003.82
2022-07-09 14:32:00,,0833.5,5.00,0.00,29.7,27.9,00.0,38.5,31.5,27.5,0000.0,0011.24,0004.58,0003.81
2022-07-09 14:33:00,,0833.5,4.99,0.00,29.7,28.1,00.0,38.5,31.5,26.9,0000.0,0012.16,0004.53,0003.79
2022-07-09 14:34:00,,0833.5,5.00,0.00,29.7,28.2,00.0,38.5,31.5,27.6,0000.0,0012.50,0004.51,0003.77
2022-07-09 14:35:00,,0833.6,5.00,0.00,29.7,28.3,00.0,38.5,31.6,26.8,0000.0,0012.96,0004.53,0003.76
2022-07-09 14:36:00,,0833.6,4.99,0.00,29.7,28.4,00.0,38.5,31.6,26.8,0000.0,0013.28,0004.56,0003.76
2022-07-09 14:37:00,,0833.6,5.01,0.00,29.8,28.5,00.0,38.5,31.7,27.4,0000.0,0013.18,0004.53,0003.76
2022-07-09 14:38:00,,0833.6,5.00,0.00,29.8,28.6,00.0,38.5,31.7,27.2,0000.0,0011.76,0004.50,0003.75
2022-07-09 14:39:00,,0833.5,5.00,0.00,29.8,28.7,00.0,38.5,31.8,26.8,0000.0,0011.75,0004.47,0003.74
2022-07-09 14:40:00,,0833.5,5.01,0.00,29.8,28.6,00.0,38.5,31.7,26.7,0000.0,0011.43,0004.45,0003.72
2022-07-09 14:41:00,,0833.6,5.00,0.00,29.8,27.9,00.0,38.5,31.7,27.5,0000.0,0012.26,0004.45,0003.72
2022-07-09 14:42:00,,0833.5,5.00,0.00,29.8,27.5,00.0,38.4,31.6,28.2,0000.0,0013.15,0004.45,0003.72
2022-07-09 14:43:00,,0833.5,5.00,0.00,29.7,27.5,00.0,38.4,31.5,27.7,0000.0,0012.62,0004.44,0003.73
2022-07-09 14:44:00,,0833.5,4.99,0.00,29.7,27.6,00.0,38.4,31.4,28.0,0000.0,0011.85,0004.48,0003.73
2022-07-09 14:45:00,,0833.6,5.00,0.00,29.7,27.7,00.0,38.4,31.4,28.1,0000.0,0011.64,0004.49,0003.73
2022-07-09 14:46:00,,0833.6,5.00,0.00,29.7,27.9,00.0,38.4,31.4,29.2,0000.0,0011.47,0004.50,0003.74
2022-07-09 14:47:00,,0833.6,5.00,0.00,29.6,28.0,00.0,38.4,31.4,29.4,0000.0,0011.33,0004.50,0003.75
2022-07-09 14:48:00,,0833.6,5.00,0.00,29.7,28.1,00.0,38.4,31.5,28.4,0000.0,0011.58,0004.53,0003.76
2022-07-09 14:49:00,,0833.6,5.00,0.00,29.7,28.3,00.0,38.4,31.5,28.6,0000.0,0012.20,0004.51,0003.76
2022-07-09 14:50:00,,0833.6,4.99,0.00,29.7,28.4,00.0,38.5,31.6,28.4,0000.0,0012.03,0004.48,0003.75
2022-07-09 14:51:00,,0833.6,5.00,0.00,29.7,28.5,00.0,38.5,31.6,29.4,0000.0,0012.05,0004.50,0003.76
2022-07-09 14:52:00,,0833.5,5.01,0.00,29.8,28.6,00.0,38.5,31.7,29.3,0000.0,0011.79,0004.51,0003.76
2022-07-09 14:53:00,,0833.6,4.99,0.00,29.8,28.7,00.0,38.5,31.7,28.8,0000.0,0010.65,0004.55,0003.77
2022-07-09 14:54:00,,0833.6,5.00,0.00,29.8,28.5,00.0,38.5,31.7,28.5,0000.0,0010.07,0004.54,0003.77
2022-07-09 14:55:00,,0833.6,5.00,0.00,29.8,27.8,00.0,38.4,31.6,28.1,0000.0,0009.77,0004.50,0003.78
2022-07-09 14:56:00,,0833.7,5.01,0.00,29.7,27.5,00.0,38.4,31.5,28.2,0000.0,0009.82,0004.54,0003.78
2022-07-09 14:57:00,,0833.6,5.00,0.00,29.7,27.5,00.0,38.4,31.4,29.2,0000.0,0009.75,0004.50,0003.78
2022-07-09 14:58:00,,0833.6,4.99,0.00,29.6,27.6,00.0,38.4,31.4,28.7,0000.0,0009.92,0004.48,0003.78
2022-07-09 14:59:00,,0833.6,5.00,0.00,29.6,27.7,00.0,38.4,31.4,28.2,0000.0,0009.72,0004.44,0003.78
